DLH8F LFPG-EDDF

Flight info

Callsign DLH8F
Flight time 0h 41m
Altitude 23000
Route RANUX DCT VALEK DCT LIPNI UN858 LIMGO Z111 RAMOB IMCOM1D
Aircraft A321/M-SDE2E3FGIJ1LORWXYZ/HB1

Departure

Time 2026-05-08 21:00
Airport Charles de Gaulle International Airport (LFPG)

Arrival

Time 2026-05-08 21:41
Airport Frankfurt Main Airport (EDDF)
Time Latitude Longitude Altitude Speed Heading
2026-05-08 20:35 49.01618 2.53835 362 ft 0 kts 170°
2026-05-08 20:51 49.01638 2.53830 364 ft 4 kts 170°
2026-05-08 20:51 49.01664 2.53823 362 ft 4 kts 166°
2026-05-08 20:51 49.01689 2.53810 362 ft 4 kts 148°
2026-05-08 20:51 49.01707 2.53785 361 ft 4 kts 99°
2026-05-08 20:52 49.01706 2.53769 360 ft 0 kts 47°
2026-05-08 20:54 49.01708 2.53773 360 ft 1 kts 47°
2026-05-08 20:54 49.01729 2.53809 362 ft 8 kts 49°
2026-05-08 20:54 49.01767 2.53888 361 ft 10 kts 58°
2026-05-08 20:55 49.01779 2.53921 356 ft 0 kts 62°
2026-05-08 20:55 49.01794 2.53971 361 ft 12 kts 70°
2026-05-08 20:55 49.01830 2.54098 359 ft 14 kts 47°
2026-05-08 20:55 49.01890 2.54093 362 ft 8 kts 299°
2026-05-08 20:56 49.01893 2.53995 357 ft 10 kts 266°
2026-05-08 20:56 49.01887 2.53880 362 ft 12 kts 265°
2026-05-08 20:56 49.01879 2.53751 354 ft 13 kts 265°
2026-05-08 20:56 49.01872 2.53608 357 ft 14 kts 265°
2026-05-08 20:57 49.01863 2.53447 360 ft 16 kts 265°
2026-05-08 20:57 49.01853 2.53275 355 ft 17 kts 265°
2026-05-08 20:57 49.01851 2.53097 355 ft 16 kts 287°
2026-05-08 20:57 49.01950 2.53035 358 ft 17 kts 355°
2026-05-08 20:58 49.02047 2.53023 362 ft 9 kts 355°
2026-05-08 20:58 49.02056 2.53021 359 ft 0 kts 355°
2026-05-08 20:59 49.02059 2.53021 359 ft 2 kts 355°
2026-05-08 20:59 49.02097 2.53016 356 ft 9 kts 357°
2026-05-08 20:59 49.02157 2.53086 355 ft 14 kts 75°
2026-05-08 21:00 49.02168 2.53259 354 ft 24 kts 86°
2026-05-08 21:00 49.02205 2.53917 353 ft 99 kts 85°
2026-05-08 21:00 49.02280 2.55295 386 ft 156 kts 84°
2026-05-08 21:00 49.02336 2.56888 1086 ft 149 kts 86°
2026-05-08 21:01 49.02401 2.58478 1801 ft 150 kts 85°
2026-05-08 21:01 49.02491 2.60060 2545 ft 150 kts 85°
2026-05-08 21:01 49.02585 2.61646 3266 ft 150 kts 85°
2026-05-08 21:01 49.02679 2.63250 3759 ft 158 kts 85°
2026-05-08 21:02 49.02782 2.65026 4019 ft 179 kts 85°
2026-05-08 21:02 49.02894 2.67034 4271 ft 201 kts 86°
2026-05-08 21:02 49.03016 2.69268 4430 ft 223 kts 86°
2026-05-08 21:02 49.03150 2.71765 4612 ft 249 kts 86°
2026-05-08 21:03 49.03289 2.74486 5123 ft 263 kts 86°
2026-05-08 21:03 49.03426 2.77302 5804 ft 270 kts 86°
2026-05-08 21:03 49.03819 2.80118 6481 ft 277 kts 65°
2026-05-08 21:03 49.05002 2.82442 7147 ft 282 kts 39°
2026-05-08 21:04 49.06617 2.84170 7887 ft 285 kts 33°
2026-05-08 21:04 49.07724 2.85272 8375 ft 288 kts 34°
2026-05-08 21:04 49.09142 2.87434 9063 ft 293 kts 57°
2026-05-08 21:04 49.09896 2.90327 9733 ft 297 kts 82°
2026-05-08 21:05 49.10051 2.93493 10288 ft 306 kts 88°
2026-05-08 21:05 49.10156 2.96862 10444 ft 329 kts 88°
2026-05-08 21:05 49.10261 3.00467 10568 ft 351 kts 88°
2026-05-08 21:05 49.10374 3.04297 10694 ft 371 kts 88°
2026-05-08 21:06 49.10496 3.08294 11044 ft 382 kts 88°
2026-05-08 21:06 49.10625 3.12365 11570 ft 387 kts 88°
2026-05-08 21:06 49.10757 3.16487 12146 ft 390 kts 88°
2026-05-08 21:06 49.10889 3.20638 12739 ft 393 kts 88°
2026-05-08 21:07 49.11022 3.24825 13335 ft 396 kts 88°
2026-05-08 21:07 49.11154 3.29045 13931 ft 399 kts 88°
2026-05-08 21:07 49.11282 3.33287 14468 ft 402 kts 88°
2026-05-08 21:07 49.11409 3.37566 15013 ft 404 kts 88°
2026-05-08 21:08 49.11536 3.41864 15542 ft 407 kts 88°
2026-05-08 21:08 49.11660 3.46190 16063 ft 409 kts 88°
2026-05-08 21:08 49.11784 3.50540 16580 ft 411 kts 88°
2026-05-08 21:08 49.11907 3.54917 17088 ft 414 kts 88°
2026-05-08 21:09 49.12030 3.59317 17587 ft 416 kts 88°
2026-05-08 21:09 49.12150 3.63737 18080 ft 418 kts 88°
2026-05-08 21:09 49.12267 3.68185 18536 ft 421 kts 88°
2026-05-08 21:09 49.12384 3.72662 18940 ft 423 kts 87°
2026-05-08 21:10 49.12500 3.77173 19348 ft 426 kts 87°
2026-05-08 21:10 49.12617 3.81709 19749 ft 429 kts 87°
2026-05-08 21:10 49.12736 3.86279 20153 ft 432 kts 86°
2026-05-08 21:10 49.12855 3.90886 20556 ft 435 kts 86°
2026-05-08 21:11 49.12971 3.95516 20951 ft 439 kts 86°
2026-05-08 21:11 49.13084 4.00185 21339 ft 442 kts 86°
2026-05-08 21:11 49.13195 4.04886 21719 ft 445 kts 86°
2026-05-08 21:11 49.13306 4.09618 22088 ft 447 kts 85°
2026-05-08 21:12 49.13419 4.14376 22461 ft 450 kts 85°
2026-05-08 21:12 49.13530 4.19179 22827 ft 453 kts 85°
2026-05-08 21:12 49.13636 4.23996 23050 ft 456 kts 85°
2026-05-08 21:12 49.13743 4.28877 23089 ft 465 kts 85°
2026-05-08 21:13 49.13986 4.33834 23088 ft 472 kts 79°
2026-05-08 21:13 49.14712 4.38740 23077 ft 474 kts 70°
2026-05-08 21:13 49.15886 4.43436 23080 ft 474 kts 64°
2026-05-08 21:13 49.17154 4.48081 23083 ft 474 kts 65°
2026-05-08 21:14 49.18413 4.52735 23080 ft 474 kts 65°
2026-05-08 21:14 49.19667 4.57391 23086 ft 474 kts 65°
2026-05-08 21:14 49.20921 4.62057 23087 ft 474 kts 65°
2026-05-08 21:14 49.22171 4.66711 23082 ft 471 kts 65°
2026-05-08 21:15 49.23410 4.71325 23087 ft 469 kts 65°
2026-05-08 21:15 49.24635 4.75875 23082 ft 468 kts 65°
2026-05-08 21:15 49.25891 4.80537 23086 ft 468 kts 65°
2026-05-08 21:15 49.27109 4.85085 23084 ft 468 kts 65°
2026-05-08 21:16 49.28331 4.89702 23095 ft 468 kts 66°
2026-05-08 21:16 49.29547 4.94322 23094 ft 468 kts 66°
2026-05-08 21:16 49.30762 4.98943 23097 ft 467 kts 66°
2026-05-08 21:16 49.31979 5.03559 23101 ft 467 kts 66°
2026-05-08 21:17 49.33201 5.08167 23100 ft 467 kts 66°
2026-05-08 21:17 49.34426 5.12777 23099 ft 467 kts 66°
2026-05-08 21:17 49.35650 5.17391 23101 ft 467 kts 66°
2026-05-08 21:17 49.36869 5.22005 23097 ft 467 kts 66°
2026-05-08 21:18 49.38081 5.26622 23098 ft 467 kts 66°
2026-05-08 21:18 49.39290 5.31244 23098 ft 467 kts 66°
2026-05-08 21:18 49.40502 5.35859 23105 ft 466 kts 67°
2026-05-08 21:18 49.41716 5.40482 23103 ft 467 kts 67°
2026-05-08 21:19 49.42929 5.45108 23101 ft 467 kts 67°
2026-05-08 21:19 49.44140 5.49738 23098 ft 467 kts 67°
2026-05-08 21:19 49.45345 5.54370 23097 ft 467 kts 68°
2026-05-08 21:19 49.46547 5.59011 23095 ft 467 kts 68°
2026-05-08 21:20 49.47742 5.63649 23097 ft 467 kts 68°
2026-05-08 21:20 49.48938 5.68295 23097 ft 467 kts 68°
2026-05-08 21:20 49.50129 5.72944 23097 ft 467 kts 68°
2026-05-08 21:20 49.51320 5.77592 23098 ft 467 kts 68°
2026-05-08 21:21 49.52495 5.82250 23096 ft 467 kts 68°
2026-05-08 21:21 49.53640 5.86938 23091 ft 468 kts 69°
2026-05-08 21:21 49.54779 5.91631 23085 ft 468 kts 69°
2026-05-08 21:21 49.55926 5.96332 23090 ft 469 kts 69°
2026-05-08 21:22 49.57080 6.01025 23089 ft 469 kts 68°
2026-05-08 21:22 49.58243 6.05730 23087 ft 470 kts 69°
2026-05-08 21:22 49.59406 6.10429 23093 ft 470 kts 69°
2026-05-08 21:22 49.60566 6.15135 23097 ft 470 kts 69°
2026-05-08 21:23 49.61718 6.19847 23095 ft 470 kts 69°
2026-05-08 21:23 49.62865 6.24567 23098 ft 470 kts 69°
2026-05-08 21:23 49.64158 6.29186 23096 ft 469 kts 62°
2026-05-08 21:23 49.65796 6.33536 23089 ft 469 kts 59°
2026-05-08 21:24 49.67469 6.37865 23089 ft 470 kts 59°
2026-05-08 21:24 49.69143 6.42207 23093 ft 470 kts 59°
2026-05-08 21:24 49.70813 6.46548 23089 ft 470 kts 59°
2026-05-08 21:24 49.72659 6.50711 23089 ft 470 kts 50°
2026-05-08 21:25 49.74893 6.54389 23087 ft 470 kts 41°
2026-05-08 21:25 49.77413 6.57599 23089 ft 469 kts 38°
2026-05-08 21:25 49.79960 6.60758 23091 ft 469 kts 38°
2026-05-08 21:25 49.82507 6.63926 23089 ft 469 kts 38°
2026-05-08 21:26 49.85049 6.67098 23097 ft 469 kts 38°
2026-05-08 21:26 49.87590 6.70275 23095 ft 469 kts 38°
2026-05-08 21:26 49.90110 6.73493 23098 ft 469 kts 42°
2026-05-08 21:26 49.92223 6.77337 23099 ft 470 kts 57°
2026-05-08 21:27 49.93635 6.81900 23094 ft 470 kts 71°
2026-05-08 21:27 49.94666 6.86726 22628 ft 470 kts 72°
2026-05-08 21:27 49.95664 6.91550 22357 ft 469 kts 72°
2026-05-08 21:27 49.96644 6.96367 22092 ft 468 kts 72°
2026-05-08 21:28 49.97619 7.01180 21839 ft 466 kts 72°
2026-05-08 21:28 49.98581 7.05927 21574 ft 452 kts 72°
2026-05-08 21:28 49.99507 7.10495 21313 ft 434 kts 72°
2026-05-08 21:28 50.00397 7.14883 21051 ft 418 kts 72°
2026-05-08 21:29 50.01257 7.19118 20799 ft 404 kts 72°
2026-05-08 21:29 50.02092 7.23208 20545 ft 391 kts 72°
2026-05-08 21:29 50.02901 7.27178 20338 ft 378 kts 72°
2026-05-08 21:29 50.03674 7.30994 20209 ft 363 kts 72°
2026-05-08 21:30 50.04431 7.34730 19468 ft 367 kts 73°
2026-05-08 21:30 50.05210 7.38589 18404 ft 381 kts 73°
2026-05-08 21:30 50.06010 7.42570 17425 ft 388 kts 73°
2026-05-08 21:30 50.06809 7.46570 16722 ft 387 kts 73°
2026-05-08 21:31 50.07606 7.50558 16023 ft 385 kts 73°
2026-05-08 21:31 50.08398 7.54529 15346 ft 383 kts 73°
2026-05-08 21:31 50.09184 7.58479 14683 ft 380 kts 73°
2026-05-08 21:31 50.09930 7.62407 14038 ft 377 kts 77°
2026-05-08 21:32 50.10341 7.66416 13397 ft 372 kts 86°
2026-05-08 21:32 50.10343 7.70409 12841 ft 365 kts 96°
2026-05-08 21:32 50.09960 7.74284 12442 ft 361 kts 104°
2026-05-08 21:32 50.09272 7.78026 12004 ft 359 kts 108°
2026-05-08 21:33 50.08698 7.81795 11572 ft 358 kts 99°
2026-05-08 21:33 50.08561 7.85650 11136 ft 356 kts 88°
2026-05-08 21:33 50.08868 7.89406 10920 ft 342 kts 78°
2026-05-08 21:33 50.09542 7.92869 10791 ft 327 kts 69°
2026-05-08 21:34 50.10343 7.96097 10669 ft 312 kts 69°
2026-05-08 21:34 50.11101 7.99195 10512 ft 301 kts 70°
2026-05-08 21:34 50.11832 8.02216 10200 ft 296 kts 70°
2026-05-08 21:34 50.12557 8.05212 9808 ft 295 kts 70°
2026-05-08 21:35 50.13278 8.08189 9403 ft 292 kts 70°
2026-05-08 21:35 50.13994 8.11144 9010 ft 291 kts 69°
2026-05-08 21:35 50.14709 8.14084 8611 ft 289 kts 69°
2026-05-08 21:35 50.15416 8.16990 8084 ft 285 kts 69°
2026-05-08 21:36 50.15874 8.19956 7514 ft 281 kts 90°
2026-05-08 21:36 50.15468 8.22877 6993 ft 276 kts 118°
2026-05-08 21:36 50.14296 8.25130 6450 ft 271 kts 141°
2026-05-08 21:36 50.12700 8.26708 5818 ft 268 kts 163°
2026-05-08 21:37 50.10885 8.27274 5224 ft 266 kts 173°
2026-05-08 21:37 50.09045 8.27581 4607 ft 266 kts 174°
2026-05-08 21:37 50.07224 8.27838 4000 ft 265 kts 172°
2026-05-08 21:37 50.05443 8.28508 3401 ft 263 kts 161°
2026-05-08 21:38 50.03696 8.29361 3051 ft 251 kts 161°
2026-05-08 21:38 50.02209 8.30463 2999 ft 225 kts 136°
2026-05-08 21:38 50.01330 8.32337 2995 ft 212 kts 117°
2026-05-08 21:38 50.00754 8.34371 2665 ft 208 kts 104°
2026-05-08 21:39 50.00661 8.36598 2262 ft 204 kts 83°
2026-05-08 21:39 50.01051 8.38670 1954 ft 196 kts 71°
2026-05-08 21:39 50.01522 8.40617 1663 ft 183 kts 71°
2026-05-08 21:39 50.01950 8.42395 1393 ft 168 kts 70°
2026-05-08 21:40 50.02337 8.44009 1169 ft 152 kts 69°
2026-05-08 21:40 50.02698 8.45511 954 ft 146 kts 67°
2026-05-08 21:40 50.03048 8.46973 753 ft 143 kts 68°
2026-05-08 21:41 50.03737 8.49850 356 ft 141 kts 66°
2026-05-08 21:41 50.04055 8.51149 328 ft 108 kts 70°
2026-05-08 21:41 50.04254 8.51996 337 ft 59 kts 70°
2026-05-08 21:41 50.04359 8.52432 351 ft 38 kts 69°
2026-05-08 21:42 50.04390 8.52816 352 ft 34 kts 96°
2026-05-08 21:42 50.04357 8.53143 363 ft 28 kts 98°
2026-05-08 21:42 50.04372 8.53391 372 ft 20 kts 70°
2026-05-08 21:42 50.04399 8.53586 375 ft 18 kts 84°
2026-05-08 21:43 50.04414 8.53793 375 ft 20 kts 83°
2026-05-08 21:43 50.04430 8.54015 375 ft 21 kts 83°
2026-05-08 21:43 50.04447 8.54253 375 ft 23 kts 84°
2026-05-08 21:43 50.04445 8.54520 367 ft 27 kts 102°
2026-05-08 21:44 50.04331 8.54755 358 ft 29 kts 148°
2026-05-08 21:44 50.04146 8.54866 355 ft 27 kts 159°
2026-05-08 21:44 50.04033 8.54944 358 ft 14 kts 136°
2026-05-08 21:44 50.03976 8.54978 356 ft 10 kts 171°
2026-05-08 21:45 50.03899 8.55016 355 ft 14 kts 158°
2026-05-08 21:45 50.03857 8.55144 355 ft 15 kts 78°
2026-05-08 21:45 50.03895 8.55304 349 ft 17 kts 69°
2026-05-08 21:45 50.03957 8.55449 356 ft 17 kts 18°
2026-05-08 21:46 50.04064 8.55413 354 ft 15 kts 345°
2026-05-08 21:46 50.04125 8.55452 359 ft 15 kts 55°
2026-05-08 21:46 50.04163 8.55619 354 ft 17 kts 70°
2026-05-08 21:46 50.04205 8.55794 357 ft 18 kts 69°
2026-05-08 21:47 50.04250 8.55975 359 ft 18 kts 69°
2026-05-08 21:47 50.04324 8.56063 357 ft 13 kts 352°
2026-05-08 21:47 50.04406 8.56032 359 ft 11 kts
2026-05-08 21:47 50.04450 8.56114 359 ft 10 kts 68°
2026-05-08 21:48 50.04455 8.56175 360 ft 5 kts 115°
2026-05-08 21:48 50.04432 8.56203 360 ft 2 kts 152°
2026-05-08 21:48 50.04419 8.56212 358 ft 3 kts 156°
2026-05-08 21:48 50.04407 8.56219 357 ft 1 kts 159°
2026-05-08 21:49 50.04405 8.56220 364 ft 0 kts 159°